Tracking 30703 objects as of 13-Jun-2025
HD Live streaming from Space Station
objects crossing your sky now

GALAXY 3R

Track GALAXY 3R now!
GALAXY 3R is classified as:


NORAD ID: 23741
Int'l Code: 1995-069A
Perigee: 35,785.9 km
Apogee: 35,827.9 km
Inclination: 12.9 °
Period: 1,436.8 minutes
Semi major axis: 42177 km
RCS: 12.3125 m2 (large)
Launch date: December 15, 1995
Source: United States (US)
Launch site: AIR FORCE EASTERN TEST RANGE (AFETR)

24 C-band, 16 Ku-band; North America, Caribbean; 140 television channels.
Your satellite tracking list
Your tracking list is empty




NASA's NSSDC Master Catalog

Two Line Element Set (TLE):
1 23741U 95069A   25163.24784589  .00000004  00000-0  00000+0 0  9993
2 23741  12.9331  18.9194 0004976  89.7714 120.3035  1.00224848108105
Source of the keplerian elements: AFSPC